CAPE
0 0 0 0 0 1 0 0 0 0 41 53 53 73 126 0 0 0 49 318 1036 1898 1694 1544 1623 1909 1685 1968 2266 2183 2115 2138 1992 2012 1804 1698 1439 1342 1131 1509 1498 1516 1519 1527
0 0 0 0 0 0 1 2 0 0 28 2 24 193 120 3 141 1 2 566 2096 2011 2223 2257 2223 2256 2460 2416 2352 2664 2400 2278 1997 1910 1589 1366 1322 1355 1038 976 647 1356 1297 1402
0 0 0 0 0 0 0 0 0 0 2 26 8 246 199 163 109 484 1004 1548 2265 2210 2510 2547 2569 2525 2501 2541 2394 2287 1904 1997 1873 1793 1662 1543 1330 1243 1123 1073 1090 1000 1087 1184
0 1 0 11 0 0 0 0 0 1 19 10 2 122 469 452 491 267 349 1098 1154 2490 2713 2593 2496 2508 2364 2258 2203 1716 1369 1015 673 571 426 255 260 321 387 540 861 1090 945 746
13 5 1 16 131 14 0 0 10 31 33 36 19 265 340 252 262 298 42 349 583 801 1915 1953 1821 1961 1932 1584 1296 860 609 335 109 54 10 0 0 0 0 0 0 11 191 818
12 17 0 52 53 8 0 0 5 7 0 2 114 226 761 240 44 34 84 459 244 1432 1666 1544 1384 1245 1301 1009 582 360 59 7 0 0 0 0 0 0 0 0 0 0 0 0
8 9 0 27 10 5 0 1 0 12 0 110 375 713 909 479 442 885 412 54 0 1168 1497 1266 946 687 738 438 188 2 0 0 0 0 0 0 0 0 0 0 0 0 0 0
7 3 0 0 34 27 8 0 8 939 634 555 580 535 659 1010 1054 974 888 977 1044 1163 1053 739 525 484 292 128 0 0 0 0 0 0 0 0 0 0 0 2 1 0 1 0
68 39 55 143 90 85 54 8 1 203 1086 844 868 851 689 797 812 796 626 614 763 614 471 264 219 210 66 0 0 0 0 0 0 0 0 0 0 0 0 1 1 1 3 3
10 121 99 85 169 76 112 16 14 106 957 846 847 787 683 576 620 811 708 562 510 399 251 57 15 126 16 1 0 0 0 0 0 0 0 2 2 0 0 1 1 2 3 4
0 47 94 160 68 4 1 26 40 42 114 739 619 555 654 671 585 514 462 430 347 219 62 0 0 67 12 0 0 0 0 0 0 0 0 2 1 0 1 2 1 1 1 5
0 11 5 71 49 3 0 37 179 142 216 563 492 538 617 596 516 374 258 119 58 30 0 0 5 26 11 0 0 0 0 0 0 0 0 0 0 0 0 0 0 0 0 0
0 0 0 0 0 4 25 279 286 433 300 336 620 706 713 609 375 173 75 11 0 0 5 5 1 11 8 13 0 0 0 0 0 0 0 0 0 0 0 0 0 0 0 0
0 0 0 0 0 6 0 3 471 578 453 646 813 814 700 463 300 94 0 0 0 0 3 4 9 6 5 21 2 0 0 0 0 0 0 0 0 0 0 0 0 0 0 0
0 0 0 0 0 0 10 5 104 648 564 678 784 731 497 344 299 145 1 0 3 3 1 4 49 14 15 14 0 0 0 0 0 0 0 0 0 0 0 0 0 0 0 0
0 1 0 0 0 0 6 57 530 485 616 667 709 602 355 217 231 105 10 0 0 0 1 0 5 25 5 15 0 0 0 0 0 0 0 0 0 0 0 0 0 0 0 0
0 0 0 0 0 0 0 4 448 496 600 676 756 501 277 407 143 43 8 0 0 0 0 1 0 40 23 12 0 0 0 0 0 0 0 0 0 0 0 0 0 0 0 0
0 0 0 0 0 0 0 2 271 519 575 719 686 432 433 271 125 39 57 123 69 5 0 0 1 8 8 12 12 0 0 0 0 0 0 0 0 0 0 0 0 0 0 0
11 0 0 0 0 0 0 0 17 687 702 648 553 484 402 174 190 158 100 76 75 68 15 0 0 0 14 101 0 0 0 0 0 0 0 0 0 0 0 0 0 0 0 0
44 2 0 0 0 0 0 0 21 746 562 477 462 456 332 106 25 159 59 1 0 2 2 0 0 0 0 14 20 0 0 0 0 0 0 0 0 0 0 0 0 0 0 0
34 15 1 0 0 8 10 402 431 293 437 400 452 290 171 135 1 25 15 0 0 0 0 0 0 0 0 0 0 0 0 0 0 0 0 0 0 0 0 0 0 0 0 0
113 9 11 0 0 1 72 296 234 207 371 380 420 329 101 72 1 0 11 4 24 0 0 0 0 0 0 0 0 0 0 0 0 0 0 0 0 0 0 0 0 0 0 0
35 39 88 36 41 2 14 29 107 259 421 502 486 354 157 49 0 0 0 2 61 0 0 0 0 0 0 0 0 0 0 0 0 6 0 0 0 0 0 0 0 0 0 0
5 31 70 145 56 15 3 0 2 115 482 383 391 337 234 126 33 35 13 10 53 4 0 0 0 0 0 0 0 0 0 0 0 0 0 0 0 0 0 0 0 0 0 0
10 59 59 119 146 185 18 0 0 0 148 713 718 832 459 209 118 76 46 50 9 0 0 0 0 0 0 0 0 0 0 0 0 0 0 0 0 0 0 0 0 0 0 0
19 20 80 169 218 192 530 279 168 320 423 378 872 1036 1023 657 237 89 41 44 34 4 3 15 4 0 0 0 0 0 0 0 0 0 0 0 0 0 0 0 0 0 0 0
25 0 4 89 107 75 56 126 272 162 114 120 244 691 538 208 127 31 14 29 60 26 0 0 34 9 0 1 0 3 0 0 0 0 0 0 0 0 0 0 0 0 0 0
CIN
-0 -0 -0 -0 -0 -12 -0 -0 -0 -13 -25 -63 -130 -174 -186 -0 -0 -0 -217 -98 -66 -44 -51 -60 -47 -26 -23 -30 -42 -42 -43 -32 -30 -27 -16 -13 -14 -13 -10 -9 -9 -13 -16 -20
-0 -0 -0 -0 -0 -0 -5 -16 -0 -0 -31 -58 -111 -217 -230 -27 -279 -4 -3 -123 -28 -46 -28 -34 -35 -26 -25 -20 -15 -11 -21 -14 -13 -22 -24 -24 -21 -20 -31 -12 -58 -11 -11 -19
-0 -0 -0 -0 -0 -0 -0 -0 -6 -15 -50 -93 -108 -150 -131 -313 -242 -84 -53 -55 -38 -46 -49 -44 -43 -45 -38 -41 -36 -36 -33 -31 -32 -29 -22 -22 -33 -30 -25 -20 -25 -35 -25 -21
-0 -9 -0 -23 -0 -0 -0 -0 -0 -51 -107 -68 -59 -202 -201 -233 -204 -123 -58 -56 -94 -31 -48 -55 -51 -37 -38 -39 -34 -50 -78 -113 -154 -154 -164 -187 -170 -147 -132 -101 -59 -36 -52 -66
-22 -10 -11 -73 -56 -36 -0 -0 -92 -89 -97 -68 -122 -121 -200 -194 -160 -119 -313 -162 -122 -113 -79 -95 -96 -62 -24 -27 -46 -81 -133 -183 -222 -209 -37 -0 -0 -0 -0 -0 -0 -35 -170 -70
-80 -29 -0 -44 -117 -95 -0 -0 -89 -73 -0 -9 -85 -43 -95 -287 -368 -452 -364 -326 -275 -14 -91 -100 -93 -87 -36 -42 -93 -144 -241 -168 -0 -0 -0 -0 -0 -0 -0 -0 -0 -0 -0 -0
-41 -47 -0 -105 -148 -66 -0 -45 -0 -43 -0 -28 -58 -70 -99 -224 -235 -193 -232 -344 -0 -66 -70 -109 -113 -111 -66 -95 -146 -36 -0 -0 -0 -0 -0 -0 -0 -0 -0 -0 -0 -0 -0 -0
-3 -11 -4 -0 -103 -39 -39 -0 -37 -127 -60 -97 -133 -127 -114 -95 -87 -116 -150 -55 -20 -70 -112 -161 -136 -96 -78 -118 -0 -0 -0 -0 -0 -0 -0 -0 -0 -0 -0 -0 -0 -0 -0 -0
-53 -18 -11 -48 -33 -84 -130 -53 -50 -228 -114 -113 -131 -106 -105 -106 -96 -99 -103 -99 -90 -126 -156 -139 -123 -124 -155 -4 -3 -0 -0 -0 -0 -0 -0 -0 -0 -0 -0 -0 -0 -0 -0 -0
-0 -33 -140 -154 -145 -259 -176 -48 -67 -121 -72 -120 -118 -118 -99 -111 -104 -99 -131 -143 -129 -158 -172 -274 -319 -136 -171 -51 -32 -0 -0 -0 -0 -0 -0 -0 -0 -0 -0 -0 -0 -0 -0 -0
-1 -63 -115 -126 -127 -160 -136 -193 -11 -96 -116 -69 -111 -109 -107 -116 -124 -134 -116 -123 -166 -198 -262 -0 -0 -104 -12 -18 -0 -0 -0 -0 -0 -0 -0 -0 -0 -0 -0 -0 -0 -0 -0 -0
-0 -122 -32 -176 -160 -42 -0 -116 -166 -166 -46 -58 -85 -111 -121 -124 -137 -161 -195 -266 -316 -338 -7 -0 -9 -45 -7 -0 -0 -0 -0 -0 -0 -0 -0 -0 -0 -0 -0 -0 -0 -0 -0 -0
-4 -3 -0 -20 -0 -92 -53 -47 -28 -45 -71 -93 -109 -131 -145 -164 -225 -261 -318 -372 -0 -0 -12 -9 -4 -9 -6 -5 -0 -0 -0 -0 -0 -0 -0 -0 -0 -0 -0 -0 -0 -0 -0 -0
-0 -0 -0 -0 -14 -77 -0 -59 -48 -89 -82 -97 -133 -165 -186 -215 -237 -266 -0 -0 -0 -5 -4 -8 -18 -4 -11 -7 -5 -0 -0 -0 -0 -0 -0 -0 -0 -0 -0 -0 -0 -0 -0 -0
-0 -0 -0 -0 -0 -0 -203 -133 -97 -71 -79 -116 -145 -187 -200 -207 -194 -201 -37 -0 -7 -4 -6 -17 -79 -22 -10 -9 -0 -0 -0 -0 -0 -0 -0 -0 -0 -0 -0 -0 -0 -0 -0 -0
-0 -7 -0 -0 -0 -0 -62 -146 -26 -58 -77 -97 -140 -216 -179 -198 -153 -160 -205 -0 -0 -2 -4 -0 -6 -60 -16 -12 -0 -0 -0 -0 -0 -0 -0 -0 -0 -0 -0 -0 -0 -0 -0 -0
-0 -0 -0 -0 -0 -0 -0 -262 -32 -49 -69 -79 -115 -166 -171 -159 -150 -174 -198 -0 -0 -0 -0 -0 -1 -48 -9 -11 -1 -0 -0 -0 -0 -0 -0 -0 -0 -0 -0 -0 -0 -0 -0 -0
-0 -0 -0 -0 -0 -0 -0 -53 -44 -32 -56 -52 -86 -116 -124 -174 -145 -174 -159 -101 -83 -88 -0 -0 -1 -6 -19 -16 -29 -0 -0 -0 -0 -0 -0 -0 -0 -0 -0 -0 -0 -0 -0 -0
-20 -0 -0 -0 -0 -0 -0 -0 -40 -36 -40 -51 -57 -63 -102 -154 -98 -94 -120 -133 -94 -58 -82 -0 -0 -0 -18 -16 -0 -0 -0 -0 -0 -0 -0 -0 -0 -0 -0 -0 -0 -0 -0 -0
-51 -74 -0 -0 -0 -0 -0 -0 -5 -52 -69 -47 -52 -54 -86 -122 -125 -78 -135 -26 -0 -16 -13 -0 -0 -0 -0 -24 -9 -0 -0 -0 -0 -0 -0 -0 -0 -0 -0 -0 -0 -0 -0 -0
-44 -70 -28 -0 -0 -18 -19 -29 -53 -47 -51 -66 -61 -78 -73 -67 -42 -148 -154 -0 -0 -0 -0 -0 -0 -0 -0 -0 -0 -0 -0 -0 -0 -0 -0 -0 -0 -0 -0 -0 -0 -0 -0 -0
-30 -34 -51 -0 -0 -198 -116 -35 -35 -54 -53 -56 -39 -55 -61 -70 -32 -82 -179 -164 -120 -0 -0 -0 -0 -0 -0 -0 -0 -0 -0 -0 -4 -0 -0 -0 -0 -0 -0 -0 -0 -0 -0 -0
-27 -69 -35 -34 -36 -32 -110 -118 -105 -53 -28 -32 -40 -36 -43 -90 -0 -0 -0 -79 -90 -0 -0 -0 -0 -0 -0 -0 -0 -0 -0 -0 -0 -31 -0 -0 -0 -0 -0 -0 -0 -0 -0 -0
-72 -70 -50 -32 -61 -99 -34 -0 -12 -100 -37 -28 -37 -41 -38 -53 -72 -82 -124 -146 -76 -147 -0 -0 -0 -0 -0 -0 -0 -0 -0 -0 -0 -0 -0 -0 -0 -0 -0 -0 -0 -0 -0 -0
-85 -93 -63 -39 -13 -44 -154 -0 -0 -0 -88 -29 -29 -31 -53 -62 -73 -71 -82 -85 -128 -0 -5 -0 -0 -0 -0 -0 -0 -0 -0 -0 -0 -0 -0 -0 -0 -0 -0 -0 -0 -0 -0 -0
-32 -30 -37 -19 -13 -8 -12 -50 -39 -26 -26 -20 -14 -18 -19 -44 -88 -111 -158 -127 -139 -124 -85 -126 -90 -0 -0 -0 -0 -0 -0 -0 -0 -0 -0 -0 -0 -0 -0 -0 -0 -0 -0 -0
-35 -0 -35 -23 -32 -44 -40 -47 -21 -22 -33 -27 -15 -19 -61 -121 -118 -165 -177 -167 -139 -69 -0 -0 -124 -118 -0 -32 -0 -118 -0 -0 -0 -0 -0 -0 -0 -0 -0 -0 -0 -0 -0 -0
Wind_Speed
33 32 30 30 30 35 27 28 30 26 18 13 8 6 6 6 7 4 4 13 17 13 9 7 4 4 13 9 8 9 8 6 8 8 4 7 14 11 10 11 21 23 23 22
39 38 34 37 34 32 32 32 35 39 20 15 12 4 2 6 6 13 2 13 11 6 7 5 4 1 2 2 3 3 3 2 2 4 8 15 24 30 29 28 30 35 24 27
39 37 41 42 34 32 30 32 27 32 33 11 11 9 7 8 9 6 10 10 3 5 4 3 1 2 4 5 5 6 7 11 13 14 16 20 24 26 26 27 26 27 26 24
30 31 38 32 38 38 31 28 28 34 17 13 12 4 5 5 7 7 8 11 12 10 5 3 5 4 6 6 7 9 9 11 14 17 20 23 24 26 27 27 29 31 33 32
33 35 36 35 25 27 25 32 27 25 26 11 11 7 7 4 4 7 2 10 15 25 2 4 5 5 4 6 8 9 12 14 18 21 25 27 28 30 32 34 35 36 36 37
35 36 38 31 25 24 21 32 28 29 16 7 5 10 9 10 5 4 5 10 9 3 4 6 4 5 5 6 8 10 13 16 20 22 23 25 29 32 34 36 38 38 39 39
36 35 32 24 19 23 22 29 24 36 20 14 5 2 4 2 5 4 5 6 2 5 1 3 5 7 6 6 9 11 14 17 18 21 23 26 28 31 34 37 40 42 44 43
33 38 46 22 24 23 20 19 19 12 6 6 4 6 9 9 7 7 7 6 6 3 3 7 7 7 6 8 9 12 14 16 18 21 23 26 29 32 35 37 41 42 44 45
27 32 37 24 28 25 21 20 18 15 8 5 3 2 3 4 5 4 4 5 3 3 5 6 7 6 7 6 8 10 12 14 17 20 23 27 31 34 35 38 39 40 39 40
33 28 27 31 23 24 27 17 19 17 17 1 0 1 2 3 4 5 5 6 5 5 6 7 8 7 5 6 8 9 11 14 17 20 24 28 30 34 36 38 38 35 34 35
35 27 25 17 16 15 15 19 26 23 24 4 2 2 2 3 4 5 5 4 4 5 6 6 5 4 7 8 10 11 12 14 17 20 23 26 30 35 37 37 36 33 30 27
30 20 26 33 21 20 12 20 37 38 10 5 3 3 4 6 6 6 7 7 7 6 5 5 5 7 8 9 9 10 11 13 16 18 21 24 28 32 36 38 38 36 32 27
31 24 29 39 30 30 18 13 9 7 2 1 3 4 6 7 8 8 7 7 6 6 5 6 4 7 10 9 9 9 10 12 15 17 19 22 26 30 34 36 37 37 35 32
33 30 34 38 30 26 33 20 7 10 6 4 1 4 6 7 7 7 7 6 6 5 5 4 5 7 9 8 6 8 10 11 14 15 17 19 23 26 30 34 36 35 35 35
31 31 33 31 29 35 40 48 38 12 5 3 1 3 5 5 5 5 5 5 6 6 4 3 2 6 7 6 7 8 9 10 11 12 14 15 18 21 25 28 31 33 33 34
30 28 30 32 35 35 27 46 21 10 6 3 4 3 5 5 5 5 5 4 4 5 4 3 1 5 7 7 7 7 8 9 10 11 12 13 15 17 19 20 21 26 30 31
35 35 30 32 32 36 26 22 9 10 7 5 4 4 6 5 5 5 4 4 3 3 2 2 2 4 7 7 7 6 6 7 9 10 11 11 12 14 15 17 19 20 21 24
25 17 17 26 30 35 35 24 20 9 10 6 4 3 4 4 3 4 4 4 4 4 4 5 5 4 7 8 8 7 7 8 9 10 11 11 12 13 14 14 16 18 20 21
20 15 17 26 31 32 39 35 25 12 10 7 4 4 2 2 2 6 4 4 4 3 4 5 8 8 9 10 11 9 11 11 11 12 11 10 8 10 11 12 14 16 17 19
14 14 15 21 27 36 46 47 47 11 9 7 3 1 3 4 3 3 6 3 3 4 5 5 8 10 12 14 15 15 14 13 13 12 13 11 9 10 9 11 11 13 14 17
10 6 2 7 10 20 30 16 10 9 6 4 4 2 2 5 6 6 8 4 2 5 6 7 8 9 12 14 12 15 13 12 12 12 12 11 12 11 11 10 11 11 12 14
19 8 6 16 15 7 11 9 7 6 5 5 7 2 5 7 8 6 5 5 1 7 5 5 7 8 11 21 23 20 21 18 9 12 11 13 14 14 15 15 14 13 13 14
22 19 11 9 10 7 10 10 11 13 10 2 2 4 5 7 8 8 8 4 4 5 4 4 7 18 19 18 16 15 17 14 15 11 12 13 12 13 13 14 15 14 13 13
17 17 20 23 11 9 13 17 18 24 25 2 4 9 9 7 6 4 3 8 6 5 3 3 5 14 10 6 7 11 13 12 7 6 6 10 12 11 5 10 9 13 11 8
15 18 20 24 15 8 6 9 34 38 34 5 10 8 6 7 6 5 2 5 3 4 6 19 4 7 4 3 6 5 2 1 3 4 12 3 4 0 0 2 4 1 5 4
13 19 18 15 15 13 6 3 9 5 8 8 3 6 7 9 9 8 10 12 13 17 21 18 15 8 6 6 6 6 6 6 7 8 7 10 8 7 8 8 10 4 4 4
14 16 15 15 18 17 16 16 17 19 20 18 24 16 10 9 11 14 16 19 20 23 31 34 29 25 17 14 14 11 9 9 9 9 9 10 10 12 11 12 12 15 8 7
Wind_Direction
272 269 279 288 279 263 279 272 279 283 308 290 304 310 318 294 307 233 156 156 146 153 156 148 161 157 153 152 148 151 155 157 169 184 213 276 287 286 233 282 284 288 287 283
268 264 274 276 281 276 274 276 276 271 289 289 296 307 274 186 211 163 217 256 216 134 133 162 145 126 46 63 29 59 89 109 4 340 321 310 299 290 291 291 294 280 287 285
270 269 269 269 273 281 284 279 282 277 282 279 294 296 235 240 295 277 296 247 180 199 220 211 199 293 311 331 357 350 357 349 346 339 327 316 306 300 298 295 296 293 292 290
278 277 263 275 266 276 284 279 273 284 269 265 291 313 162 154 116 112 124 94 285 253 256 285 299 312 328 340 351 357 356 347 341 333 324 317 313 307 303 302 297 294 289 287
273 271 273 271 278 280 280 272 267 279 271 278 275 276 285 247 210 181 322 340 288 241 323 326 317 326 357 348 354 352 342 337 330 326 318 312 308 306 302 298 295 293 291 288
270 271 267 267 276 285 288 266 262 266 276 301 258 281 288 295 316 288 72 88 114 233 343 3 350 345 6 1 353 344 343 338 335 332 327 319 312 306 304 301 297 295 292 289
264 267 271 265 281 278 277 272 279 265 258 230 280 9 73 345 347 17 122 118 249 258 57 27 355 339 347 348 344 348 341 341 344 340 335 330 324 319 312 306 300 294 290 288
264 262 260 268 268 273 276 284 292 314 167 159 124 80 72 69 66 63 78 101 117 92 2 341 346 357 358 347 1 355 348 349 351 346 341 336 331 329 323 316 306 299 293 288
272 273 269 263 261 261 267 274 290 278 275 149 118 59 37 53 65 42 31 348 351 347 345 339 342 348 337 358 7 6 1 2 9 5 355 350 346 341 333 327 316 305 300 294
268 272 279 253 268 266 257 258 271 265 257 139 132 17 37 17 37 19 342 329 342 332 322 325 335 344 18 52 41 43 33 16 16 9 4 1 358 355 349 340 330 321 313 307
262 270 269 259 281 282 264 253 250 262 260 263 302 313 13 10 11 26 33 22 354 334 329 334 355 40 85 81 69 62 46 29 18 14 11 11 11 5 2 360 355 347 338 334
265 273 262 245 262 287 265 232 225 232 250 282 291 322 353 345 343 341 339 346 348 358 16 34 72 84 101 92 81 70 45 28 24 26 24 22 17 14 15 14 12 9 5 359
269 278 259 233 253 262 254 204 237 237 250 38 326 331 332 340 339 346 349 351 355 16 30 45 65 89 111 104 95 73 54 44 39 34 31 27 22 20 17 19 19 15 14 16
274 281 253 233 251 254 243 234 239 250 248 264 24 19 10 352 351 346 339 335 344 14 34 45 75 105 113 105 87 76 64 60 47 46 39 34 30 29 28 26 26 22 21 24
262 257 238 251 261 255 260 231 225 220 157 134 44 17 13 23 13 12 22 10 344 339 8 35 60 115 120 96 107 92 68 59 55 51 51 49 46 42 35 33 33 33 36 37
257 260 248 248 258 265 276 213 207 188 195 192 118 74 68 61 71 46 49 21 338 311 326 317 13 117 127 121 113 95 75 74 59 64 66 57 55 50 46 47 52 51 52 54
252 245 259 259 265 262 269 274 186 217 211 201 167 112 81 74 68 53 63 27 358 355 19 32 114 125 127 123 117 104 78 69 71 76 80 77 74 78 73 68 68 82 80 76
266 273 275 270 269 257 256 252 240 206 224 209 185 144 106 97 64 78 76 60 16 5 42 90 113 121 127 125 116 98 85 96 97 101 103 91 96 99 98 94 85 86 98 107
273 281 278 276 268 261 246 237 257 206 212 202 177 139 119 90 47 108 95 73 50 33 29 82 126 135 127 123 122 109 107 111 116 123 126 114 97 104 101 93 87 90 99 120
292 281 293 289 290 260 245 243 233 186 191 203 171 171 110 121 103 90 119 88 78 66 77 70 118 136 145 141 143 143 134 124 127 132 142 133 120 126 120 110 90 92 95 120
296 318 324 87 61 132 193 198 200 203 213 201 231 225 146 134 131 126 129 113 112 111 102 104 115 119 133 139 135 148 139 148 150 134 123 124 136 138 124 109 110 111 108 120
281 257 153 164 162 110 224 220 231 239 232 237 260 226 139 137 139 141 140 131 307 129 126 119 131 129 131 159 172 165 171 174 137 154 145 146 150 149 150 146 138 138 139 142
281 277 251 208 282 284 263 255 258 263 253 212 148 136 144 139 140 144 150 170 300 141 141 150 142 156 158 161 153 157 164 160 301 149 155 157 150 148 148 155 160 157 151 155
297 280 268 255 264 274 261 258 286 250 235 274 109 124 124 123 132 136 295 280 286 163 247 257 161 162 159 142 141 153 167 169 148 28 108 150 162 159 129 163 153 167 160 148
307 275 261 248 262 282 284 307 230 213 215 149 130 125 118 114 111 107 326 303 281 251 266 270 247 173 200 208 183 177 173 195 294 320 320 307 333 40 135 154 181 210 186 183
268 247 263 273 277 291 281 224 247 258 275 285 312 287 291 297 303 328 325 302 302 287 280 279 277 265 239 242 257 264 270 280 294 292 298 312 309 292 308 301 309 263 225 217
270 252 280 287 280 279 283 286 276 276 280 284 277 287 286 294 309 319 311 299 297 295 268 271 276 280 272 264 263 262 263 272 279 288 289 291 287 301 299 297 294 300 286 254